Starlink 31330

operational
NORAD ID: 58951 Int'l Des: 2024-027 Owner: SPXS Country: US Constellation: starlink
LEOCIRCULAR

About Starlink 31330

Description loading...

Live Position

Loading 3D Globe...

Upcoming Passes

Altitude History

Altitude vs Time

uPlot chart will show altitude changes over time

Two-Line Element Set

1 58951U 24027W 25260.64407055 .00000356 00000-0 24127-4 0 9993
2 58951 53.1621 30.6230 0001224 78.5054 281.6084 15.30203197 90874
Epoch: Sep 17, 2025 • Age: 23 hours

Current Status

Altitude 486.0 km
Velocity 7.62 km/s
Sub-Earth Point -32.47°S, 21.2°E
Launch Date Feb 10, 2024
Age 1.6 years
Type internet

Technical Details

Classification Payload
Mass 730.00 kg
Dry Mass 700.00 kg
Total Mass 730.00 kg
Length 0.30 m
Diameter 4.10 m
Span 29.00 m
Shape Box + pan
Manufacturer SPXS
Bus Type Starlink V2M
Phase Status In Orbit
Owner/State SPXS/US

Large Constellations

Loading constellations...